Home > Weather > New Haven > Past weeks

Flag for USA Past Weather in New Haven, Connecticut, USA — Yesterday and Last 2 Weeks

Now
73 °F

Scattered clouds.


Feels Like: 71 °F
Forecast: 71 / 90 °F
Wind: 6 mph from West

Location: Tweed-New Haven Airport

Current Time: Jul 26, 2016 at 8:22:29 AM

Latest Report: Jul 26, 2016 at 7:53 AM


Visibility: 10 mi

Pressure: 29.88 "Hg

Humidity: 88%

Dew Point: 69 °F

Location of New HavenLocation

Past Weather in New Haven — Graph

°F

New Haven Temperature Yesterday

Maximum temperature yesterday: 85 °F (at 1:53 PM)
Minimum temperature yesterday: 69 °F (at 3:53 AM)
Average temperature yesterday: 76 °F

High & Low Weather Summary for the Past Weeks

 TemperatureHumidityPressure
High92 °F (Jul 23, 4:53 PM)97% (Jul 14, 6:53 AM)30.24 "Hg (Jul 14, 6:53 AM)
Low60 °F (Jul 20, 2:53 AM)31% (Jul 19, 3:53 PM)29.77 "Hg (Jul 23, 5:53 PM)
Average76 °F71%29.99 "Hg
* Reported Jul 11 6:53 AM — Jul 26 6:53 AM, New Haven, Weather by CustomWeather, © 2016

Note: Actual official high and low records may vary slightly from our data, if they occured in-between our weather recording intervals... More about our weather records

Advertising

New Haven Weather History for the Previous 24 Hours

Scroll right to see more
 ConditionsComfort  
Time TempWeatherWind HumidityBarometerVisibility
6:53 AM
Tue, Jul 26
72 °FScattered clouds.5 mph91%29.87 "Hg10 mi
5:53 AM70 °FPassing clouds.3 mph93%29.86 "Hg10 mi
4:53 AM71 °FClear.3 mph90%29.85 "Hg10 mi
3:53 AM71 °FClear.5 mph90%29.83 "Hg10 mi
2:53 AM71 °FClear.No wind93%29.83 "Hg10 mi
1:53 AM72 °FClear.3 mph91%29.83 "Hg10 mi
12:53 AM72 °FClear.No wind91%29.84 "Hg10 mi
11:53 PM
Mon, Jul 25
73 °FPassing clouds.3 mph90%29.85 "Hg10 mi
10:53 PM73 °FClear.5 mph90%29.85 "Hg10 mi
9:53 PM73 °FPartly cloudy.6 mph94%29.83 "Hg10 mi
8:53 PM74 °FLight rain. More clouds than sun.7 mph94%29.80 "Hg10 mi
7:53 PM76 °FThunderstorms. Mostly cloudy.5 mph91%29.90 "Hg8 mi
6:53 PM77 °FPassing clouds.7 mph77%29.86 "Hg10 mi
5:53 PM77 °FCloudy.6 mph77%29.83 "Hg10 mi
4:53 PM77 °FCloudy.6 mph85%29.83 "Hg10 mi
3:53 PM83 °FThunderstorms. Broken clouds.9 mph65%29.88 "Hg10 mi
2:53 PM85 °FSunny.9 mph61%29.88 "Hg10 mi
1:53 PM85 °FSunny.8 mph63%29.89 "Hg10 mi
12:53 PM84 °FSunny.6 mph65%29.90 "Hg10 mi
11:53 AM81 °FScattered clouds.9 mph72%29.92 "Hg10 mi
10:53 AM81 °FScattered clouds.9 mph67%29.93 "Hg10 mi
9:53 AM81 °FBroken clouds.5 mph67%29.93 "Hg10 mi
8:53 AM77 °FPartly sunny.No wind77%29.94 "Hg10 mi
Weather by CustomWeather, © 2016

See weather overviewHow to use our weather pages